Regional Weather Roundup
Issued by NWS

Home | Current Version | Previous Version | Graphics & Text | Print | Product List | Glossary On
Versions: 1 2 3 4 5 6 7 8 9 10 11 12 13 14 15 16 17 18 19 20 21 22 23 24 25 26 27 28 29 30 31 32 33 34 35 36 37 38 39 40 41 42 43 44 45 46 47 48 49 50
000
ASUS45 KBOU 141607
RWRCO

WEATHER ROUNDUP FOR COLORADO
NATIONAL WEATHER SERVICE DENVER/BOULDER CO
1000 AM MDT SUN SEP 14 2014

NOTE: "FAIR" INDICATES FEW OR NO CLOUDS BELOW 12000 FEET WITH NO
SIGNIFICANT WEATHER AND/OR OBSTRUCTIONS TO VISIBILITY.

COZ001>005-013-030-031-141700-
...NORTHWEST COLORADO...

CITY           SKY/WX    TMP DP  RH WIND       PRES   REMARKS
CRAIG          SUNNY     64  38  38 NE9       30.21S
HAYDEN         SUNNY     59  34  38 E12       30.23S
MEEKER         SUNNY     61  34  36 CALM      30.24S
MOUNT WERNER   NOT AVBL
STEAMBOAT SPGS SUNNY     54  38  55 CALM      30.26S
WALDEN         MOSUNNY   61  32  33 S8        30.29F
$$

COZ006>008-011-141700-
...WEST CENTRAL VALLEYS...

CITY           SKY/WX    TMP DP  RH WIND       PRES   REMARKS
GRAND JUNCTION SUNNY     68  37  32 SE10      30.16S
MONTROSE       MOSUNNY   66  41  40 CALM      30.25S
EAGLE          MOSUNNY   52  36  54 CALM      30.32F
RIFLE          SUNNY     58  39  49 W3        30.23S
DELTA          MOSUNNY   66  38  36 N5        30.22S
NUCLA          MOSUNNY   63  43  48 CALM      30.29R
$$

COZ017>023-064>068-141700-
...SOUTHWEST COLORADO...

CITY           SKY/WX    TMP DP  RH WIND       PRES   REMARKS
DURANGO        SUNNY     66  44  45 E5        30.32S
CORTEZ         SUNNY     67  45  45 CALM      30.26S
PAGOSA SPRINGS NOT AVBL
TELLURIDE      MOSUNNY   63  36  36 CALM      30.44S
WOLF CREEK PAS SUNNY     46  37  71 S7        30.63R
$$

COZ009-010-012-014-032>034-037-058>063-141700-
...CENTRAL COLORADO...

CITY           SKY/WX    TMP DP  RH WIND       PRES   REMARKS
ASPEN          SUNNY     61  34  36 CALM      30.33S
BUENA VISTA    SUNNY     57  32  37 CALM      30.38F
COPPER MTN     MOSUNNY   54  25  32 W26G33    30.59S
BERTHOUD PASS  FAIR      41  41 100 NW31G39   30.58F
COTTONWOOD PAS MOSUNNY   57  28  33 CALM      30.48R
GUNNISON       MOSUNNY   50  30  46 CALM      30.43F
KREMMLING      SUNNY     50  32  50 CALM      30.34F
LEADVILLE      SUNNY     51  27  39 SW3       30.46S
MONARCH PASS   SUNNY     45  27  49 W16       30.71R
SALIDA         SUNNY     59  33  37 CALM      30.42F
SUNLIGHT       SUNNY     54  36  50 CALM      30.53S
WILKERSON PASS NOT AVBL
$$

COZ069>075-141700-
...SAN LUIS VALLEY/SANGRE DE CRISTO MOUNTAINS...

CITY           SKY/WX    TMP DP  RH WIND       PRES   REMARKS
ALAMOSA        SUNNY     61  44  53 S3        30.37S
LA VETA PASS   NOT AVBL
SAGUACHE       NOT AVBL
$$

COZ035-036-038>040-141700-
...NORTHERN COLORADO FRONT RANGE...

CITY           SKY/WX    TMP DP  RH WIND       PRES   REMARKS
DENVER INTL AP MOSUNNY   72  38  29 SW10      30.14S
DMNS CITY PARK   N/A     72  40  32 S8        30.14S
AURORA         MOSUNNY   71  38  29 SW12      30.17R
FRONT RANGE AP NOT AVBL
ERIE MUNI ARPT MOSUNNY   69  45  41 CALM      30.12F
BOULDER MUN AP MOSUNNY   70  41  35 CALM      30.12F
CENTENNIAL     MOSUNNY   72  34  24 SW14      30.18S
BROOMFIELD     NOT AVBL
FORT COLLINS   MOSUNNY   57  46  67 CALM      30.12F
LONGMONT       MOSUNNY   65  47  51 CALM      30.13F
$$

COZ041-046-047-076>085-087-088-141700-
...PIKES PEAK/PALMER DIVIDE AND SOUTHERN FOOTHILLS...

CITY           SKY/WX    TMP DP  RH WIND       PRES   REMARKS
COLO. SPRINGS  PTSUNNY   75  33  21 NW5       30.22S
A. F. ACADEMY  SUNNY     75  30  19 W10       30.23S
ELLICOTT       NOT AVBL
FALCON         SUNNY     74  25  16 NW9       30.27R
FORT CARSON    SUNNY     72  36  27 VRB1      30.20R
LIMON          SUNNY     72  41  32 W6        30.15S
MONUMENT HILL  SUNNY     70  32  24 W10       30.26R
TRINIDAD       SUNNY     71  44  37 CALM      30.21S
$$

COZ042>045-048>051-090-091-141700-
...NORTHEAST COLORADO...

CITY           SKY/WX    TMP DP  RH WIND       PRES   REMARKS
GREELEY ARPT   PTSUNNY   55  43  62 CALM      30.12S
AKRON          SUNNY     64  49  57 W5        30.11S
BURLINGTON     MOSUNNY   66  54  65 VRB7      30.10S
WRAY           CLOUDY   N/A N/A N/A E3        30.12S HAZE
STERLING       PTSUNNY   54  52  94 CALM      30.09F
HOLYOKE        FOG       54  52  94 E5        30.12F VSB 3/4
FORT MORGAN    SUNNY     62  46  56 S3        30.11F
$$

COZ086-089-092>099-141700-
...SOUTHEAST COLORADO...

CITY           SKY/WX    TMP DP  RH WIND       PRES   REMARKS
PUEBLO         SUNNY     67  37  33 W9        30.14S
LA JUNTA       SUNNY     66  49  54 W7        30.12F
LAMAR          CLOUDY    56  54  93 W8        30.10S FOG
SPRINGFIELD      N/A     75  48  38 VRB5      30.13S
$$


USA.gov is the U.S. government's official web portal to all federal, state and local government web resources and services.